Overview Statistics Trail Chart Weather Telemetry Raw packets
 

This is the latest recevied weather packets stored in our database for station/object KD2FKI. If no packets are shown the sender has not sent any weather packets the latest 10 day(s).

<< 12 13 14 15 16 17 18 >>
Time Temp. Humidity Pressure Rain* Wind** Luminosity Snow
1778008832 31.11° C 30% - 0 mm - - -
1778008239 30.56° C 30% - 0 mm - - -
1778007630 31.11° C 32% - 0 mm - - -
1778007037 30.56° C 31% - 0 mm - - -
1778006464 31.11° C 32% - 0 mm - - -
1778005835 31.11° C 33% - 0 mm - - -
1778005243 30.56° C 34% - 0 mm - - -
1778004633 30.56° C 35% - 0 mm - - -
1778004059 30° C 35% - 0 mm - - -
1778003439 31.11° C 34% - 0 mm - - -
1778002840 30.56° C 35% - 0 mm - - -
1778002250 30.56° C 35% - 0 mm - - -
1778001635 30° C 34% - 0 mm - - -
1778001047 29.44° C 35% - 0 mm - - -
1778000433 30° C 35% - 0 mm - - -
1777999847 29.44° C 35% - 0 mm - - -
1777999233 29.44° C 35% - 0 mm - - -
1777998642 30° C 34% - 0 mm - - -
1777998046 29.44° C 35% - 0 mm - - -
1777997440 28.89° C 38% - 0 mm - - -
1777996843 28.33° C 40% - 0 mm - - -
1777996237 27.78° C 39% - 0 mm - - -
1777995642 27.78° C 39% - 0 mm - - -
1777995032 27.22° C 43% - 0 mm - - -
1777994439 26.67° C 44% - 0 mm - - -

* Rain latest hour (hover to see other rain measurements)
** Current wind speed in m/s (hover to see current wind gust speed)